Location: Caltech
(34.1382°N, 118.1253°W)
Time: 03:26:13
(UTC-07:00)

AO-Echo - Visible Passes

Search period start: 28 May 2017 00:00
Search period end: 07 June 2017 00:00
Orbit: 694 x 811 km, 98.4° (Epoch: 27 May)

Date Brightness Start Highest point End Pass type
(mag) Time Alt. Az. Time Alt. Az. Time Alt. Az.
28 May ? 01:02:37 10° NE 01:04:22 15° ENE 01:04:22 15° ENE visible
28 May ? 02:39:44 10° N 02:44:18 49° NW 02:44:18 49° NW visible
29 May ? 01:59:11 10° NNE 02:03:22 52° NE 02:03:22 52° NE visible
29 May ? 03:39:52 10° NNW 03:42:34 14° WNW 03:43:19 14° WNW visible
30 May ? 01:19:31 10° NE 01:22:27 22° ENE 01:22:27 22° ENE visible
30 May ? 02:57:46 10° N 03:02:23 34° WNW 03:02:23 34° WNW visible
31 May ? 02:16:54 10° NNE 02:21:28 67° N 02:21:28 67° N visible
01 Jun ? 01:36:47 10° NNE 01:40:32 33° ENE 01:40:32 33° ENE visible
01 Jun ? 03:16:02 10° NNW 03:20:09 23° WNW 03:20:28 23° WNW visible
02 Jun ? 00:58:04 10° ENE 00:59:37 14° ENE 00:59:37 14° ENE visible
02 Jun ? 02:34:45 10° N 02:39:33 55° NW 02:39:33 55° NW visible
03 Jun ? 01:54:19 10° NNE 01:58:37 50° ENE 01:58:37 50° ENE visible
03 Jun ? 03:34:37 10° NNW 03:37:44 16° WNW 03:38:33 15° WNW visible
04 Jun ? 01:14:47 10° NE 01:17:41 21° ENE 01:17:41 21° ENE visible
04 Jun ? 02:52:46 10° N 02:57:37 38° WNW 02:57:37 38° WNW visible
05 Jun ? 02:11:59 10° NNE 02:16:41 69° NNE 02:16:41 69° NNE visible
05 Jun ? 03:54:21 10° NW 03:55:16 10° WNW 03:56:11 10° WNW visible
06 Jun ? 01:32:00 10° NNE 01:35:44 31° ENE 01:35:44 31° ENE visible
06 Jun ? 03:10:58 10° NNW 03:15:18 26° WNW 03:15:40 26° WNW visible
